Location: Prague
(50.0830°N, 14.4670°E)
Time: 12:08:36
(UTC+01:00)

STARLINK-1546 - Pass Details

Date: 22 September 2020
Orbit: 378 x 381 km, 53.0° (Epoch: 25 October)

Event Time Altitude Azimuth Distance (km) Brightness Sun altitude
Exits shadow 03:59:18 20° 66° (ENE) 940 5.5 -26.3°
Drops below altitude 10° 04:00:25 10° 68° (ENE) 1,394 6.6 -26.1°
Enters shadow 04:55:40 -70° 260° (W) 12,377 10.5 -18.5°
